RH
91 72 86 91 89 84 98 99 98 80 22 12 9 7 5 5 5 7 11 11 13 13 13 21 43 44 30 30 49 57 56 63 92 82 100 100 100 100 97 57 71 78 100 100
85 100 100 98 100 100 95 93 55 20 12 9 8 6 5 5 5 7 9 11 12 15 18 18 27 33 34 38 49 56 67 70 89 81 100 100 91 96 98 100 97 86 91 100
64 81 99 100 98 97 72 29 19 13 10 9 7 6 6 6 5 6 7 9 13 15 20 22 26 38 28 25 27 41 36 56 78 71 90 97 100 99 98 90 95 100 88 100
57 78 91 99 86 68 33 22 19 12 10 9 7 7 7 6 5 6 6 8 11 15 16 24 25 31 27 33 40 32 38 44 64 63 78 72 79 86 91 96 94 93 96 98
36 55 74 93 79 53 32 24 18 13 11 10 8 8 8 8 7 6 6 7 9 9 13 24 30 32 40 32 26 33 48 77 61 49 49 59 78 71 67 60 53 59 65 65
28 43 62 81 89 60 35 25 21 15 13 11 10 9 9 9 9 8 6 6 8 8 8 11 27 34 30 26 25 29 40 63 75 86 73 42 77 57 51 55 54 41 36 31
23 38 55 71 78 75 40 29 23 17 14 13 12 11 10 10 10 10 9 7 6 7 7 8 12 21 27 31 27 28 31 36 39 51 66 73 48 39 42 44 44 44 40 39
19 25 46 62 76 85 58 36 26 20 16 15 14 13 13 12 12 12 11 10 8 7 7 7 7 8 14 21 22 22 23 30 27 37 56 61 71 69 49 38 37 40 37 32
22 17 34 54 60 78 77 50 31 24 19 17 15 14 14 15 15 14 13 13 12 10 8 8 8 7 8 10 11 14 13 14 20 25 35 38 46 44 53 52 39 32 29 28
19 21 22 41 53 64 77 57 44 28 23 19 17 15 15 16 18 18 16 15 14 14 12 11 9 9 8 8 8 11 12 12 12 15 21 22 26 25 32 36 38 42 34 26
20 21 19 28 48 51 67 77 51 42 27 22 19 16 16 17 19 20 19 18 16 16 16 15 14 12 11 9 8 8 8 8 8 8 10 11 14 14 17 20 26 29 32 35
7 23 24 20 40 49 57 62 76 53 36 27 22 18 17 17 18 20 22 21 19 18 18 17 17 18 16 15 14 12 9 9 9 7 6 6 6 6 9 12 12 13 16 15
6 24 34 26 27 46 51 61 65 72 47 33 26 21 19 18 18 19 20 23 23 20 19 19 19 18 19 19 17 18 16 16 14 12 13 12 11 8 6 5 5 6 7 8
20 5 40 45 34 40 49 59 66 78 57 42 32 24 22 21 19 20 22 24 26 26 22 21 21 21 21 22 19 19 18 18 17 17 17 17 16 16 14 12 11 10 8 6
30 15 10 37 43 42 51 56 69 78 69 53 40 29 24 23 22 24 28 28 30 29 29 24 22 24 24 25 24 23 21 19 19 17 18 18 19 18 18 18 17 17 16 14
48 31 8 8 34 41 49 56 61 73 81 64 53 37 30 27 25 28 34 38 37 33 35 33 27 24 25 27 27 27 25 23 22 21 20 20 19 18 19 18 19 19 19 19
63 50 27 4 30 46 51 66 73 72 77 71 70 51 39 34 29 30 40 44 46 42 37 40 34 27 25 26 29 30 28 25 23 21 22 21 20 20 19 19 19 19 20 20
64 55 32 14 5 56 56 68 81 74 80 79 70 68 56 45 37 35 42 46 53 50 42 39 34 28 28 26 29 32 29 25 23 22 22 21 21 20 20 20 21 22 23 23
52 49 29 19 5 13 76 80 94 83 82 81 70 82 82 58 47 47 48 48 53 54 46 38 36 36 35 30 32 34 30 25 23 23 22 21 20 21 23 24 25 26 26 26
36 36 28 22 10 6 24 96 100 95 76 73 78 82 78 77 65 55 60 55 54 55 50 39 46 53 50 51 40 37 34 26 24 23 24 23 25 27 28 29 28 28 29 28
16 27 30 25 17 11 8 57 93 97 68 58 73 84 84 87 75 64 65 64 58 58 54 43 49 58 47 56 56 44 37 29 24 24 25 26 28 30 30 31 30 27 29 31
29 43 41 32 24 16 11 12 80 68 68 53 65 86 86 90 94 75 69 72 66 56 54 50 54 56 52 50 48 46 37 32 27 25 28 31 32 33 34 33 31 29 30 32
40 45 49 34 24 17 12 6 51 60 47 59 73 92 100 99 97 96 85 74 66 61 56 51 64 62 56 53 51 48 45 40 33 27 31 35 37 38 35 33 34 32 31 32
32 35 34 29 19 11 7 4 30 78 77 97 100 100 98 97 99 98 94 80 68 58 51 59 75 66 65 64 58 55 52 48 41 31 37 39 40 38 36 33 33 30 30 32
25 22 21 17 13 11 12 8 26 83 95 100 100 100 98 99 96 94 80 65 56 38 63 72 75 70 72 70 66 63 59 52 39 39 43 44 40 36 33 32 32 32 32 35
49 41 26 14 14 20 20 14 19 82 100 100 99 99 98 94 89 70 61 50 44 56 94 87 77 71 78 76 71 69 68 62 58 53 50 50 46 41 35 33 33 33 33 35
47 35 36 30 23 52 46 32 22 67 100 99 100 98 98 90 76 61 56 54 72 99 98 86 75 75 78 76 75 72 74 73 68 61 59 57 55 46 40 36 35 35 36 37
Wind_Speed
37 25 26 27 24 20 11 7 7 25 23 18 16 14 13 13 17 22 21 23 25 27 25 22 21 23 21 17 18 21 23 18 20 20 21 18 23 18 20 21 22 18 32 31
33 37 32 27 20 23 6 12 28 26 23 21 17 15 15 18 22 24 24 24 25 24 23 18 19 19 21 20 20 19 22 20 20 16 21 20 22 27 24 30 24 25 37 31
39 37 34 31 20 20 29 27 25 23 23 20 17 16 18 21 25 22 27 26 26 25 24 17 9 11 14 17 19 18 16 20 20 18 22 24 21 26 23 21 18 25 29 31
41 41 39 35 19 24 23 23 19 19 20 19 17 18 20 23 25 24 27 28 26 22 21 20 11 8 11 16 15 15 14 18 20 21 18 17 21 19 24 23 24 18 25 24
40 34 32 28 18 18 21 17 16 15 16 16 17 18 20 23 24 24 26 28 28 26 19 22 17 15 19 20 23 23 20 21 20 21 19 22 19 21 21 17 20 27 30 26
30 31 26 23 18 8 13 14 12 11 13 13 15 17 18 21 23 24 26 28 27 27 23 18 20 19 19 21 24 24 23 24 21 20 18 16 20 19 17 15 16 23 25 24
24 23 19 20 18 2 5 10 8 9 10 11 13 14 15 18 21 23 25 25 27 28 27 23 15 17 16 16 17 17 17 18 19 16 14 16 18 14 13 12 12 12 8 9
19 21 15 13 15 3 2 3 5 6 6 8 10 11 12 15 17 20 22 24 25 26 27 25 22 16 11 12 13 15 18 17 14 17 17 16 14 13 13 13 13 11 7 4
22 21 12 8 9 8 6 3 4 4 4 5 7 8 9 12 14 15 18 20 22 23 25 25 24 22 20 13 11 8 10 12 14 13 13 12 13 11 9 11 14 15 14 15
29 23 19 11 8 8 6 6 6 7 5 3 4 5 6 8 11 13 14 16 17 18 21 22 23 23 24 21 17 15 16 16 11 10 9 6 6 7 8 9 7 6 9 11
32 32 25 18 16 11 9 11 9 10 9 6 3 2 3 4 8 11 12 13 13 14 16 18 19 20 21 21 20 19 20 19 17 14 11 9 5 4 5 3 3 4 4 2
32 33 31 23 21 17 15 14 16 12 12 11 8 5 2 1 2 6 9 11 12 11 12 13 14 16 17 19 18 19 18 18 18 19 17 18 15 13 9 6 4 2 2 3
29 35 34 29 25 25 21 18 18 20 14 15 14 10 7 5 5 3 4 7 8 10 11 12 12 13 13 14 15 14 16 18 17 16 16 16 15 14 13 14 13 10 6 2
31 30 37 35 30 28 27 22 21 24 20 18 18 16 12 9 8 7 5 4 4 5 7 9 11 12 13 14 15 13 14 14 15 13 12 10 12 13 11 8 6 6 5 3
31 33 36 39 37 32 31 27 27 24 27 21 20 20 16 12 10 8 6 6 5 4 3 3 5 7 9 11 12 14 13 12 13 12 12 11 10 9 8 7 5 4 3 2
33 33 32 40 42 40 34 32 32 28 34 26 22 21 21 16 14 12 9 6 7 6 4 3 3 2 5 7 8 9 10 11 11 11 12 11 12 12 11 9 8 7 7 6
37 34 34 35 44 44 39 33 34 35 33 38 30 26 24 22 18 15 13 10 8 8 8 6 5 5 3 4 6 7 8 8 9 10 11 11 13 13 13 14 14 15 14 14
39 36 37 35 40 47 44 37 36 38 37 43 41 33 28 25 22 20 18 15 11 10 10 8 7 6 5 5 6 7 7 7 8 9 10 12 13 15 17 19 20 21 20 21
40 36 37 37 37 43 47 43 40 42 42 43 45 36 33 31 27 26 23 20 16 12 12 9 8 8 6 6 6 7 8 7 8 9 10 12 15 17 19 21 24 26 27 28
42 39 39 39 37 38 48 48 44 46 46 47 42 37 38 37 34 33 28 25 22 15 14 12 10 9 8 9 9 9 10 10 10 11 11 12 16 19 23 25 27 31 33 33
51 44 43 41 42 43 46 56 51 50 49 51 45 40 37 38 42 39 37 29 25 21 17 15 10 15 10 10 12 11 12 12 13 14 15 17 21 24 27 30 32 36 39 41
49 48 47 47 48 50 54 58 60 54 51 51 48 45 42 39 41 44 40 35 32 27 19 18 11 19 10 10 11 12 13 15 16 17 18 21 24 28 31 34 36 40 44 46
50 51 52 54 55 58 61 60 63 58 51 50 48 45 46 44 46 47 45 39 38 32 27 17 15 22 14 11 12 14 15 18 19 19 21 25 28 30 33 37 40 43 46 50
55 57 58 61 64 60 50 52 61 57 54 51 43 44 44 45 47 50 44 43 41 37 28 13 23 21 19 17 15 16 17 19 21 21 24 28 31 33 35 39 43 46 50 53
60 63 65 65 57 53 47 52 63 59 57 52 45 44 41 43 50 50 48 47 45 38 20 22 24 21 20 20 18 18 19 19 20 24 27 30 33 35 38 43 47 50 53 57
60 63 63 57 53 49 46 49 61 63 58 56 50 46 40 44 49 54 52 49 43 32 24 26 30 25 23 22 21 20 21 21 24 26 28 32 37 39 42 46 50 53 57 60
70 61 54 49 47 45 46 52 58 67 60 56 53 48 42 42 49 51 53 50 43 30 27 32 32 28 27 25 24 24 24 26 28 29 32 35 40 42 45 50 54 57 60 63
Wind_Direction
51 57 55 51 86 95 87 87 132 125 114 109 100 81 69 61 56 53 52 64 75 89 90 82 78 79 82 76 57 51 52 42 56 83 62 84 111 118 123 126 128 123 98 105
29 20 25 11 16 353 9 105 119 110 107 101 88 75 71 65 60 56 52 63 75 87 85 86 82 76 70 67 62 65 67 60 56 79 71 106 97 86 83 125 127 123 104 103
14 16 13 17 17 78 105 106 103 102 100 94 86 74 68 66 61 57 55 55 68 80 76 67 78 66 50 46 39 53 71 76 68 83 89 104 88 87 85 84 103 103 111 119
14 20 23 21 58 96 99 99 95 97 99 90 82 75 70 65 63 58 57 57 62 75 78 71 52 31 11 21 56 74 78 90 82 75 87 114 114 95 92 89 86 106 113 106
13 17 20 30 80 94 98 94 95 96 96 88 80 74 70 65 63 58 57 55 57 60 76 77 66 57 59 72 90 91 93 94 96 92 82 121 130 121 101 105 106 108 104 103
8 8 24 26 30 62 97 104 101 98 93 84 75 71 68 67 64 60 57 57 54 54 60 80 85 82 87 87 88 88 96 94 95 97 92 100 134 136 131 128 135 129 122 118
356 6 10 16 7 98 96 114 111 105 91 83 71 66 65 65 65 61 59 58 59 56 53 57 87 90 85 89 84 80 79 84 90 98 101 102 112 130 146 155 158 168 171 158
334 346 355 8 11 43 142 129 147 125 101 83 70 61 62 62 60 64 58 58 60 59 58 55 62 74 77 89 86 82 74 77 85 95 108 104 104 101 103 101 106 112 125 159
308 312 322 325 338 346 226 199 230 180 136 95 70 58 59 61 60 60 60 58 58 60 61 60 60 59 59 70 78 79 77 78 79 98 117 107 94 92 92 88 79 77 79 77
289 292 295 285 289 301 277 214 240 243 211 149 94 64 51 59 62 57 56 59 59 59 63 64 64 64 59 56 56 65 64 65 72 86 96 121 101 76 86 89 76 62 52 64
272 278 280 277 263 266 282 236 226 244 243 215 181 105 45 41 59 59 54 55 57 58 60 63 67 69 67 64 60 59 62 59 62 65 69 75 75 58 60 34 43 76 81 88
266 261 268 268 260 252 258 263 236 239 245 240 222 207 213 301 27 52 51 48 51 59 59 60 60 68 70 69 68 64 63 64 61 61 58 57 55 51 42 40 50 352 337 354
297 245 256 256 255 249 247 251 250 232 239 242 237 219 215 244 284 311 13 27 38 49 59 64 63 64 65 71 69 74 74 73 71 69 71 70 67 61 56 52 51 42 38 1
303 264 239 250 250 249 243 244 244 236 228 239 239 231 221 229 253 282 310 335 2 25 47 65 66 68 63 71 68 71 71 71 71 73 76 80 78 75 81 76 55 54 44 18
294 297 250 238 244 243 242 243 240 241 226 231 238 235 223 221 233 252 279 302 312 330 358 31 49 57 57 59 59 65 63 66 69 65 61 62 60 61 66 69 67 47 47 254
285 291 286 244 237 242 236 241 237 237 224 225 232 234 231 223 224 236 250 272 288 286 304 317 315 0 31 37 44 48 52 51 51 54 51 48 42 32 27 20 8 353 345 326
284 286 285 264 238 234 233 236 236 234 234 225 224 228 232 231 223 230 244 250 267 274 274 295 290 283 290 345 6 13 25 32 39 27 26 26 21 17 11 6 357 349 343 334
284 280 279 274 248 233 229 228 233 230 230 227 226 226 230 234 231 230 241 246 259 263 264 279 277 280 283 291 324 341 346 360 10 8 5 3 5 2 357 353 347 343 339 333
278 275 273 273 259 242 230 224 228 231 226 226 226 229 230 231 235 236 236 242 251 259 259 260 263 275 285 285 296 318 318 327 337 340 346 348 351 351 347 346 342 340 337 335
278 272 268 269 255 253 239 228 228 228 227 226 226 226 227 227 230 237 239 238 243 250 253 250 262 275 287 284 287 296 304 304 312 319 330 337 340 338 337 338 338 336 334 333
278 267 261 257 248 252 249 235 225 225 227 226 225 221 221 229 229 232 238 239 242 244 243 250 247 274 296 294 281 284 296 295 298 307 316 322 325 329 330 332 333 332 332 334
263 258 256 252 245 247 248 236 222 220 223 227 224 222 225 233 232 231 233 238 243 242 237 243 245 264 288 293 287 285 292 291 292 300 309 317 322 325 326 327 329 329 330 332
258 256 254 249 247 246 245 233 220 219 220 226 224 222 227 233 233 229 230 234 240 241 238 233 244 258 274 285 293 292 289 289 290 297 309 314 317 320 321 324 327 328 329 332
257 255 252 248 249 251 249 235 217 218 219 228 229 220 229 232 229 230 227 231 236 237 234 226 243 259 270 278 288 298 299 292 294 295 307 313 315 318 321 324 325 327 329 331
254 253 251 250 251 252 242 232 218 216 218 224 223 220 229 231 226 225 225 230 232 232 225 236 252 261 272 277 284 295 304 299 294 299 306 312 316 318 323 324 325 327 329 330
250 250 248 247 246 241 238 229 220 218 219 219 221 219 219 225 227 224 224 228 231 235 236 241 251 259 273 283 286 293 303 304 302 303 306 313 315 318 321 322 325 326 328 329
249 250 249 243 237 232 230 226 223 221 224 221 220 218 214 221 224 225 226 230 238 242 239 242 251 260 269 281 291 295 302 306 307 307 308 309 312 317 320 322 324 325 327 329